TimeEST,TemperatureF,Dew PointF,Humidity,Sea Level PressureIn,VisibilityMPH,Wind Direction,Wind SpeedMPH,Gust SpeedMPH,PrecipitationIn,Events,Conditions,WindDirDegrees,DateUTC
12:15 AM,55.4,55.4,100,29.96,7.0,NE,5.8,-,N/A,Rain,Light Rain,50,2012-11-05 05:15:00
12:35 AM,55.4,55.4,100,29.95,7.0,NNE,10.4,-,N/A,,Light Drizzle,20,2012-11-05 05:35:00
12:55 AM,53.6,53.6,100,29.95,10.0,NNE,13.8,-,N/A,Rain,Light Rain,20,2012-11-05 05:55:00
1:15 AM,53.6,53.6,100,29.94,10.0,NE,10.4,-,N/A,,Scattered Clouds,40,2012-11-05 06:15:00
1:35 AM,51.8,51.8,100,29.95,10.0,NNE,5.8,-,N/A,,Scattered Clouds,30,2012-11-05 06:35:00
1:55 AM,51.8,51.8,100,29.96,10.0,NE,5.8,-,N/A,,Mostly Cloudy,50,2012-11-05 06:55:00
2:15 AM,51.8,51.8,100,29.96,10.0,Calm,Calm,-,N/A,,Overcast,0,2012-11-05 07:15:00
2:35 AM,51.8,51.8,100,29.95,10.0,NNE,5.8,-,N/A,,Overcast,20,2012-11-05 07:35:00
2:55 AM,51.8,51.8,100,29.95,10.0,North,3.5,-,N/A,,Overcast,350,2012-11-05 07:55:00
3:15 AM,51.8,51.8,100,29.95,7.0,North,8.1,-,N/A,,Overcast,360,2012-11-05 08:15:00
3:35 AM,50.0,50.0,100,29.96,10.0,North,6.9,-,N/A,,Overcast,350,2012-11-05 08:35:00
3:55 AM,50.0,50.0,100,29.96,10.0,North,6.9,-,N/A,,Overcast,10,2012-11-05 08:55:00
4:15 AM,50.0,50.0,100,29.97,10.0,North,5.8,-,N/A,,Overcast,360,2012-11-05 09:15:00
4:35 AM,50.0,50.0,100,29.97,10.0,NNE,9.2,-,N/A,,Overcast,20,2012-11-05 09:35:00
4:55 AM,48.2,48.2,100,29.98,10.0,North,9.2,-,N/A,,Overcast,360,2012-11-05 09:55:00
5:15 AM,46.4,46.4,100,29.98,10.0,North,9.2,-,N/A,,Overcast,360,2012-11-05 10:15:00
5:35 AM,46.4,46.4,100,29.99,10.0,North,8.1,-,N/A,,Overcast,360,2012-11-05 10:35:00
5:55 AM,46.4,46.4,100,30.00,10.0,North,9.2,-,N/A,,Overcast,10,2012-11-05 10:55:00
6:15 AM,46.4,46.4,100,30.01,10.0,North,9.2,-,N/A,,Overcast,10,2012-11-05 11:15:00
6:35 AM,46.4,46.4,100,30.02,10.0,North,8.1,-,N/A,,Overcast,360,2012-11-05 11:35:00
6:55 AM,46.4,46.4,100,30.02,10.0,North,6.9,-,N/A,,Overcast,10,2012-11-05 11:55:00
7:35 AM,46.4,46.4,100,30.03,10.0,North,9.2,-,N/A,,Overcast,10,2012-11-05 12:35:00
7:55 AM,46.4,46.4,100,30.04,10.0,NNE,6.9,16.1,N/A,,Overcast,20,2012-11-05 12:55:00
8:15 AM,48.2,46.4,93,30.05,10.0,NNE,10.4,-,N/A,,Overcast,20,2012-11-05 13:15:00
8:35 AM,48.2,46.4,93,30.06,10.0,North,11.5,16.1,N/A,,Mostly Cloudy,10,2012-11-05 13:35:00
8:55 AM,50.0,46.4,87,30.06,10.0,NNE,10.4,-,N/A,,Scattered Clouds,20,2012-11-05 13:55:00
9:15 AM,51.8,44.6,76,30.06,10.0,NNE,10.4,-,N/A,,Clear,30,2012-11-05 14:15:00
9:35 AM,51.8,44.6,76,30.06,10.0,NNE,11.5,-,N/A,,Clear,20,2012-11-05 14:35:00
9:55 AM,53.6,44.6,72,30.06,10.0,NE,12.7,17.3,N/A,,Clear,40,2012-11-05 14:55:00
10:15 AM,53.6,44.6,72,30.06,10.0,North,11.5,-,N/A,,Clear,10,2012-11-05 15:15:00
10:35 AM,55.4,44.6,67,30.06,10.0,NE,9.2,-,N/A,,Clear,40,2012-11-05 15:35:00
10:55 AM,55.4,44.6,67,30.05,10.0,NNE,9.2,16.1,N/A,,Clear,20,2012-11-05 15:55:00
11:15 AM,55.4,44.6,67,30.05,10.0,NNE,8.1,-,N/A,,Clear,20,2012-11-05 16:15:00
11:35 AM,57.2,44.6,63,30.04,10.0,North,8.1,-,N/A,,Clear,350,2012-11-05 16:35:00
11:55 AM,59.0,44.6,59,30.04,10.0,North,9.2,-,N/A,,Clear,360,2012-11-05 16:55:00
12:15 PM,59.0,44.6,59,30.03,10.0,NNE,10.4,-,N/A,,Clear,30,2012-11-05 17:15:00
12:35 PM,59.0,44.6,59,30.02,10.0,NNE,6.9,-,N/A,,Scattered Clouds,20,2012-11-05 17:35:00
12:55 PM,59.0,42.8,55,30.02,10.0,North,9.2,16.1,N/A,,Mostly Cloudy,10,2012-11-05 17:55:00
1:15 PM,59.0,44.6,59,30.02,10.0,NW,8.1,-,N/A,,Mostly Cloudy,320,2012-11-05 18:15:00
1:35 PM,60.8,44.6,55,30.02,10.0,North,3.5,-,N/A,,Scattered Clouds,10,2012-11-05 18:35:00
1:55 PM,60.8,42.8,52,30.01,10.0,North,9.2,-,N/A,,Clear,360,2012-11-05 18:55:00
2:15 PM,60.8,42.8,52,30.01,10.0,North,10.4,-,N/A,,Clear,350,2012-11-05 19:15:00
2:35 PM,60.8,42.8,52,30.01,10.0,Calm,Calm,-,N/A,,Clear,0,2012-11-05 19:35:00
2:55 PM,60.8,42.8,52,30.01,10.0,North,8.1,-,N/A,,Clear,360,2012-11-05 19:55:00
3:35 PM,60.8,41.0,48,30.01,10.0,North,9.2,-,N/A,,Clear,10,2012-11-05 20:35:00
3:55 PM,60.8,41.0,48,30.01,10.0,NNW,8.1,-,N/A,,Clear,340,2012-11-05 20:55:00
4:15 PM,60.8,42.8,52,30.01,10.0,NE,5.8,-,N/A,,Clear,50,2012-11-05 21:15:00
4:35 PM,59.0,42.8,55,30.01,10.0,ENE,4.6,-,0.01,,Clear,60,2012-11-05 21:35:00
4:55 PM,55.4,46.4,72,30.02,10.0,ENE,3.5,-,0.01,,Clear,60,2012-11-05 21:55:00
5:15 PM,55.4,46.4,72,30.02,10.0,East,3.5,-,N/A,,Clear,80,2012-11-05 22:15:00
5:35 PM,51.8,48.2,88,30.02,10.0,Calm,Calm,-,N/A,,Clear,0,2012-11-05 22:35:00
5:55 PM,50.0,48.2,94,30.03,10.0,Calm,Calm,-,N/A,,Clear,0,2012-11-05 22:55:00
6:15 PM,48.2,48.2,100,30.03,10.0,Calm,Calm,-,N/A,,Clear,0,2012-11-05 23:15:00
6:35 PM,46.4,46.4,100,30.04,10.0,Calm,Calm,-,N/A,,Clear,0,2012-11-05 23:35:00
6:55 PM,48.2,48.2,100,30.04,10.0,Calm,Calm,-,N/A,,Clear,0,2012-11-05 23:55:00
7:15 PM,46.4,46.4,100,30.05,10.0,Calm,Calm,-,0.01,,Clear,0,2012-11-06 00:15:00
7:35 PM,44.6,44.6,100,30.05,10.0,Calm,Calm,-,0.01,,Clear,0,2012-11-06 00:35:00
7:55 PM,44.6,44.6,100,30.06,10.0,Calm,Calm,-,0.01,,Clear,0,2012-11-06 00:55:00
8:15 PM,44.6,44.6,100,30.06,10.0,Calm,Calm,-,N/A,,Clear,0,2012-11-06 01:15:00
8:35 PM,44.6,44.6,100,30.07,10.0,Calm,Calm,-,N/A,,Clear,0,2012-11-06 01:35:00
8:55 PM,44.6,44.6,100,30.08,10.0,NE,4.6,-,N/A,,Clear,40,2012-11-06 01:55:00
9:15 PM,46.4,44.6,93,30.07,10.0,NNE,4.6,-,0.01,,Clear,30,2012-11-06 02:15:00
9:35 PM,46.4,44.6,93,30.07,10.0,NE,5.8,-,0.01,,Clear,40,2012-11-06 02:35:00
9:55 PM,46.4,46.4,100,30.07,10.0,NE,6.9,-,0.01,,Clear,40,2012-11-06 02:55:00
10:15 PM,46.4,44.6,93,30.06,10.0,NNE,6.9,-,N/A,,Clear,30,2012-11-06 03:15:00
10:35 PM,46.4,46.4,100,30.06,10.0,NNE,5.8,-,N/A,,Clear,30,2012-11-06 03:35:00
10:55 PM,48.2,44.6,87,30.06,10.0,NE,6.9,-,N/A,,Clear,40,2012-11-06 03:55:00
11:15 PM,48.2,44.6,87,30.06,10.0,NNE,5.8,-,N/A,,Clear,30,2012-11-06 04:15:00
11:35 PM,48.2,44.6,87,30.06,10.0,NNE,6.9,-,N/A,,Clear,30,2012-11-06 04:35:00
11:55 PM,46.4,44.6,93,30.06,10.0,NNE,5.8,-,0.01,,Clear,30,2012-11-06 04:55:00